| time (UTC) | temp F | wind direction | speed knots | gust knots | rain 1hr in | rain 24hr in | rain mn in | humidity % | barometer mb |
| 20260507020607 | 48 | 13 | 7.8 | 14.8 | 0.00 | 0.00 | 0.00 | 90 | 1008.0 |
| 20260507015607 | 47 | 13 | 7.8 | 14.8 | 0.00 | 0.00 | 0.00 | 91 | 1009.0 |
| 20260507014607 | 47 | 13 | 7.8 | 14.8 | 0.00 | 0.00 | 0.00 | 91 | 1009.0 |
| 20260507013607 | 47 | 13 | 7.8 | 14.8 | 0.00 | 0.00 | 0.00 | 91 | 1009.0 |
| 20260507012607 | 48 | 13 | 7.0 | 13.9 | 0.00 | 0.00 | 0.00 | 90 | 1008.0 |
| 20260507011607 | 49 | 13 | 7.0 | 13.9 | 0.00 | 0.00 | 0.00 | 93 | 1009.0 |
| 20260507010607 | 49 | 13 | 7.0 | 13.9 | 0.00 | 0.00 | 0.00 | 93 | 1009.0 |
| 20260507005607 | 49 | 20 | 6.1 | 13.9 | 0.00 | 0.00 | 0.00 | 93 | 1009.0 |
| 20260507004607 | 49 | 20 | 6.1 | 13.9 | 0.00 | 0.00 | 0.00 | 93 | 1010.0 |
| 20260507003607 | 49 | 20 | 6.1 | 13.9 | 0.00 | 0.00 | 0.00 | 93 | 1010.0 |
| 20260507002607 | 50 | 4 | 9.6 | 17.4 | 0.00 | 0.00 | 0.00 | 91 | 1008.0 |
| 20260507001607 | 50 | 4 | 9.6 | 17.4 | 0.00 | 0.00 | 0.00 | 90 | 1008.0 |
| 20260507000607 | 50 | 4 | 9.6 | 17.4 | 0.00 | 0.00 | 0.00 | 90 | 1008.0 |
| 20260506235607 | 49 | 4 | 9.6 | 17.4 | 0.00 | 0.00 | 0.00 | 92 | 1008.0 |
| 20260506234607 | 50 | 4 | 9.6 | 17.4 | 0.00 | 0.00 | 0.00 | 92 | 1008.0 |
| 20260506233607 | 50 | 4 | 9.6 | 17.4 | 0.00 | 0.00 | 0.00 | 92 | 1008.0 |
| 20260506232607 | 51 | 3 | 8.7 | 14.8 | 0.00 | 0.00 | 0.00 | 88 | 1008.0 |
| 20260506231607 | 51 | 3 | 8.7 | 14.8 | 0.00 | 0.00 | 0.00 | 87 | 1008.0 |
| 20260506230607 | 51 | 3 | 8.7 | 14.8 | 0.00 | 0.00 | 0.00 | 89 | 1008.0 |
| 20260506225607 | 51 | 3 | 8.7 | 14.8 | 0.00 | 0.00 | 0.00 | 89 | 1008.0 |
| 20260506224607 | 51 | 3 | 8.7 | 14.8 | 0.00 | 0.00 | 0.00 | 88 | 1008.0 |
| 20260506223607 | 51 | 3 | 8.7 | 14.8 | 0.00 | 0.00 | 0.00 | 88 | 1008.0 |
| 20260506222607 | 51 | 6 | 7.0 | 11.3 | 0.00 | 0.00 | 0.00 | 85 | 1008.0 |
| 20260506221607 | 52 | 6 | 7.0 | 11.3 | 0.00 | 0.00 | 0.00 | 86 | 1008.0 |
| 20260506220608 | 51 | 6 | 7.0 | 11.3 | 0.00 | 0.00 | 0.00 | 88 | 1008.0 |
| 20260506215608 | 51 | 6 | 7.0 | 11.3 | 0.00 | 0.00 | 0.00 | 88 | 1008.0 |
| 20260506214608 | 52 | 6 | 7.0 | 11.3 | 0.00 | 0.00 | 0.00 | 89 | 1008.0 |
| 20260506213608 | 52 | 6 | 7.0 | 11.3 | 0.00 | 0.00 | 0.00 | 89 | 1008.0 |
| 20260506212608 | 52 | 17 | 7.8 | 13.0 | 0.00 | 0.00 | 0.00 | 86 | 1007.0 |
| 20260506211608 | 52 | 17 | 7.8 | 13.0 | 0.00 | 0.00 | 0.00 | 86 | 1007.0 |
| 20260506210608 | 52 | 17 | 7.8 | 13.0 | 0.00 | 0.00 | 0.00 | 86 | 1007.0 |
| 20260506205608 | 52 | 17 | 7.8 | 13.0 | 0.00 | 0.00 | 0.00 | 86 | 1007.0 |
| 20260506204608 | 53 | 17 | 7.8 | 13.0 | 0.00 | 0.00 | 0.00 | 87 | 1007.0 |
| 20260506203608 | 52 | 17 | 7.8 | 13.0 | 0.00 | 0.00 | 0.00 | 87 | 1007.0 |
| 20260506202608 | 53 | 9 | 7.8 | 13.9 | 0.00 | 0.00 | 0.00 | 86 | 1007.0 |
| 20260506201608 | 53 | 9 | 7.8 | 13.9 | 0.00 | 0.00 | 0.00 | 85 | 1007.0 |
| 20260506200608 | 53 | 9 | 7.8 | 13.9 | 0.00 | 0.00 | 0.00 | 85 | 1007.0 |
| 20260506195608 | 53 | 9 | 7.8 | 13.9 | 0.00 | 0.00 | 0.00 | 86 | 1007.0 |
| 20260506194608 | 53 | 9 | 7.8 | 13.9 | 0.00 | 0.00 | 0.00 | 86 | 1007.0 |
| 20260506193608 | 53 | 9 | 7.8 | 13.9 | 0.00 | 0.00 | 0.00 | 86 | 1007.0 |
| 20260506192608 | 54 | 2 | 7.8 | 13.0 | 0.00 | 0.00 | 0.00 | 86 | 1007.0 |
| 20260506191608 | 55 | 2 | 7.8 | 13.0 | 0.00 | 0.00 | 0.00 | 85 | 1007.0 |
| 20260506190608 | 55 | 2 | 7.8 | 13.0 | 0.00 | 0.00 | 0.00 | 85 | 1007.0 |
| 20260506185608 | 55 | 2 | 7.8 | 13.0 | 0.00 | 0.00 | 0.00 | 85 | 1007.0 |
| 20260506184608 | 55 | 2 | 7.8 | 13.0 | 0.00 | 0.00 | 0.00 | 85 | 1007.0 |
| 20260506183608 | 57 | 338 | 9.6 | 14.8 | 0.00 | 0.00 | 0.00 | 83 | 1006.0 |
| 20260506182608 | 57 | 338 | 9.6 | 14.8 | 0.00 | 0.00 | 0.00 | 83 | 1006.0 |
| 20260506181608 | 57 | 338 | 9.6 | 14.8 | 0.00 | 0.00 | 0.00 | 82 | 1006.0 |
| 20260506180608 | 57 | 338 | 9.6 | 14.8 | 0.00 | 0.00 | 0.00 | 83 | 1006.0 |
| 20260506175608 | 57 | 338 | 9.6 | 14.8 | 0.00 | 0.00 | 0.00 | 83 | 1006.0 |
| 20260506174607 | 58 | 338 | 9.6 | 14.8 | 0.00 | 0.00 | 0.00 | 82 | 1006.0 |
| 20260506173608 | 58 | 338 | 9.6 | 14.8 | 0.00 | 0.00 | 0.00 | 82 | 1006.0 |
| 20260506172607 | 59 | 323 | 11.3 | 13.9 | 0.00 | 0.00 | 0.00 | 78 | 1006.0 |
| 20260506171607 | 59 | 323 | 11.3 | 13.9 | 0.00 | 0.00 | 0.00 | 77 | 1006.0 |
| 20260506170608 | 59 | 323 | 11.3 | 13.9 | 0.00 | 0.00 | 0.00 | 77 | 1006.0 |
| 20260506165607 | 60 | 323 | 11.3 | 13.9 | 0.00 | 0.00 | 0.00 | 78 | 1006.0 |
| 20260506164607 | 60 | 323 | 11.3 | 13.9 | 0.00 | 0.00 | 0.00 | 78 | 1006.0 |
| 20260506163607 | 61 | 305 | 12.2 | 13.0 | 0.00 | 0.00 | 0.00 | 75 | 1006.0 |
| 20260506162607 | 61 | 305 | 12.2 | 13.0 | 0.00 | 0.00 | 0.00 | 75 | 1006.0 |
| 20260506161607 | 62 | 305 | 12.2 | 13.0 | 0.00 | 0.00 | 0.00 | 73 | 1006.0 |
| 20260506160607 | 62 | 305 | 12.2 | 13.0 | 0.00 | 0.00 | 0.00 | 73 | 1006.0 |
| 20260506155607 | 62 | 305 | 12.2 | 13.0 | 0.00 | 0.00 | 0.00 | 71 | 1005.0 |
| 20260506154607 | 62 | 305 | 12.2 | 13.0 | 0.00 | 0.00 | 0.00 | 71 | 1005.0 |
| 20260506153607 | 63 | 283 | 12.2 | 13.9 | 0.00 | 0.00 | 0.00 | 70 | 1005.0 |
| 20260506152607 | 63 | 283 | 12.2 | 13.9 | 0.00 | 0.00 | 0.00 | 70 | 1005.0 |
| 20260506151607 | 63 | 283 | 12.2 | 13.9 | 0.00 | 0.00 | 0.00 | 69 | 1005.0 |
| 20260506150607 | 63 | 283 | 12.2 | 13.9 | 0.00 | 0.00 | 0.00 | 69 | 1005.0 |
| 20260506145607 | 63 | 283 | 12.2 | 13.9 | 0.00 | 0.00 | 0.00 | 66 | 1005.0 |
| 20260506144607 | 63 | 283 | 12.2 | 13.9 | 0.00 | 0.00 | 0.00 | 67 | 1005.0 |
| 20260506143607 | 63 | 283 | 12.2 | 13.9 | 0.00 | 0.00 | 0.00 | 68 | 1005.0 |
| 20260506142607 | 64 | 270 | 13.0 | 16.5 | 0.00 | 0.00 | 0.00 | 69 | 1005.0 |
| 20260506141607 | 64 | 270 | 13.0 | 16.5 | 0.00 | 0.00 | 0.00 | 69 | 1005.0 |
| 20260506140607 | 64 | 270 | 13.0 | 16.5 | 0.00 | 0.00 | 0.00 | 66 | 1004.0 |
| 20260506135607 | 64 | 270 | 13.0 | 16.5 | 0.00 | 0.00 | 0.00 | 66 | 1004.0 |
| 20260506134607 | 64 | 270 | 13.0 | 16.5 | 0.00 | 0.00 | 0.00 | 66 | 1004.0 |
| 20260506133607 | 64 | 270 | 13.0 | 16.5 | 0.00 | 0.00 | 0.00 | 66 | 1004.0 |
| 20260506132607 | 64 | 264 | 12.2 | 17.4 | 0.00 | 0.00 | 0.00 | 68 | 1004.0 |
| 20260506131607 | 63 | 264 | 12.2 | 17.4 | 0.00 | 0.00 | 0.00 | 66 | 1004.0 |
| 20260506130607 | 63 | 264 | 12.2 | 17.4 | 0.00 | 0.00 | 0.00 | 66 | 1004.0 |
| 20260506125607 | 63 | 264 | 12.2 | 17.4 | 0.00 | 0.00 | 0.00 | 66 | 1004.0 |
| 20260506124607 | 63 | 271 | 13.0 | 17.4 | 0.00 | 0.00 | 0.00 | 66 | 1004.0 |
| 20260506123607 | 62 | 267 | 13.9 | 20.0 | 0.00 | 0.00 | 0.00 | 68 | 1004.0 |
| 20260506122607 | 62 | 267 | 13.9 | 20.0 | 0.00 | 0.00 | 0.00 | 68 | 1004.0 |
| 20260506121607 | 62 | 267 | 13.9 | 20.0 | 0.00 | 0.00 | 0.00 | 70 | 1004.0 |
| 20260506120607 | 62 | 267 | 13.9 | 20.0 | 0.00 | 0.00 | 0.00 | 68 | 1004.0 |
| 20260506115607 | 62 | 267 | 13.9 | 20.0 | 0.00 | 0.00 | 0.00 | 68 | 1004.0 |
| 20260506114607 | 62 | 267 | 13.9 | 20.0 | 0.00 | 0.00 | 0.00 | 68 | 1004.0 |
| 20260506113607 | 62 | 267 | 13.9 | 20.0 | 0.00 | 0.00 | 0.00 | 68 | 1004.0 |
| 20260506112607 | 61 | 256 | 16.5 | 20.0 | 0.00 | 0.00 | 0.00 | 71 | 1004.0 |
| 20260506111607 | 61 | 256 | 16.5 | 20.0 | 0.00 | 0.00 | 0.00 | 71 | 1004.0 |
| 20260506110607 | 61 | 256 | 16.5 | 20.0 | 0.00 | 0.00 | 0.00 | 71 | 1004.0 |
| 20260506105607 | 61 | 256 | 16.5 | 20.0 | 0.00 | 0.00 | 0.00 | 70 | 1004.0 |
| 20260506104607 | 61 | 256 | 16.5 | 20.0 | 0.00 | 0.00 | 0.00 | 70 | 1004.0 |
| 20260506103607 | 61 | 256 | 16.5 | 20.0 | 0.00 | 0.00 | 0.00 | 70 | 1004.0 |
| 20260506102607 | 60 | 236 | 11.3 | 15.6 | 0.00 | 0.00 | 0.00 | 75 | 1004.0 |
| 20260506101607 | 60 | 236 | 11.3 | 15.6 | 0.00 | 0.00 | 0.00 | 75 | 1004.0 |
| 20260506100725 | 60 | 236 | 11.3 | 15.6 | 0.00 | 0.00 | 0.00 | 77 | 1003.0 |
| 20260506095607 | 60 | 236 | 11.3 | 15.6 | 0.00 | 0.00 | 0.00 | 77 | 1003.0 |
| 20260506094607 | 60 | 236 | 11.3 | 15.6 | 0.00 | 0.00 | 0.00 | 77 | 1003.0 |
| 20260506093607 | 60 | 236 | 11.3 | 15.6 | 0.00 | 0.00 | 0.00 | 77 | 1003.0 |
| 20260506092607 | 59 | 201 | 7.8 | 15.6 | 0.00 | 0.00 | 0.00 | 76 | 1004.0 |
| 20260506091607 | 59 | 201 | 7.8 | 15.6 | 0.00 | 0.00 | 0.00 | 76 | 1004.0 |
| 20260506090607 | 59 | 201 | 7.8 | 15.6 | 0.00 | 0.00 | 0.00 | 76 | 1004.0 |
| 20260506085607 | 59 | 201 | 7.8 | 15.6 | 0.00 | 0.00 | 0.00 | 79 | 1003.0 |
| 20260506084607 | 59 | 201 | 7.8 | 15.6 | 0.00 | 0.00 | 0.00 | 79 | 1003.0 |
| 20260506083607 | 59 | 201 | 7.8 | 15.6 | 0.00 | 0.00 | 0.00 | 79 | 1003.0 |
| 20260506082607 | 58 | 154 | 6.1 | 9.6 | 0.00 | 0.00 | 0.00 | 77 | 1004.0 |
| 20260506081607 | 57 | 154 | 6.1 | 9.6 | 0.00 | 0.00 | 0.00 | 81 | 1004.0 |
| 20260506080607 | 57 | 154 | 6.1 | 9.6 | 0.00 | 0.00 | 0.00 | 81 | 1004.0 |
| 20260506072607 | 56 | 105 | 7.0 | 7.8 | 0.00 | 0.00 | 0.00 | 85 | 1004.0 |
| 20260506071607 | 55 | 105 | 7.0 | 7.8 | 0.00 | 0.00 | 0.00 | 85 | 1004.0 |
| 20260506070607 | 55 | 105 | 7.0 | 7.8 | 0.00 | 0.00 | 0.00 | 85 | 1004.0 |
| 20260506061607 | 54 | 78 | 9.6 | 16.5 | 0.00 | 0.00 | 0.00 | 86 | 1004.0 |
| 20260506060607 | 54 | 78 | 9.6 | 16.5 | 0.00 | 0.00 | 0.00 | 86 | 1004.0 |
| 20260506050607 | 53 | 58 | 9.6 | 18.2 | 0.00 | 0.00 | 0.00 | 87 | 1004.0 |
| 20260506044607 | 52 | 58 | 9.6 | 18.2 | 0.00 | 0.00 | 0.00 | 88 | 1004.0 |
| 20260506043607 | 52 | 58 | 9.6 | 18.2 | 0.00 | 0.00 | 0.00 | 88 | 1004.0 |
| 20260506042607 | 52 | 52 | 9.6 | 17.4 | 0.00 | 0.00 | 0.00 | 90 | 1005.0 |
| 20260506041607 | 52 | 52 | 9.6 | 17.4 | 0.00 | 0.00 | 0.00 | 90 | 1005.0 |
| 20260506040607 | 52 | 52 | 9.6 | 17.4 | 0.00 | 0.00 | 0.00 | 90 | 1005.0 |
| 20260506035607 | 52 | 52 | 9.6 | 17.4 | 0.00 | 0.00 | 0.00 | 89 | 1004.0 |
| 20260506034607 | 51 | 52 | 9.6 | 17.4 | 0.00 | 0.00 | 0.00 | 89 | 1004.0 |
| 20260506033607 | 51 | 52 | 9.6 | 17.4 | 0.00 | 0.00 | 0.00 | 89 | 1004.0 |
| 20260506032607 | 51 | 56 | 8.7 | 16.5 | 0.00 | 0.00 | 0.00 | 90 | 1005.0 |
| 20260506031607 | 52 | 56 | 8.7 | 16.5 | 0.00 | 0.00 | 0.00 | 90 | 1005.0 |
| 20260506030607 | 51 | 56 | 8.7 | 16.5 | 0.00 | 0.00 | 0.00 | 89 | 1005.0 |
| 20260506025607 | 51 | 56 | 8.7 | 16.5 | 0.00 | 0.00 | 0.00 | 89 | 1005.0 |
| 20260506024607 | 52 | 56 | 8.7 | 16.5 | 0.00 | 0.00 | 0.00 | 89 | 1005.0 |
| 20260506023607 | 52 | 56 | 8.7 | 16.5 | 0.00 | 0.00 | 0.00 | 89 | 1005.0 |
| 20260506022607 | 52 | 52 | 9.6 | 19.1 | 0.00 | 0.00 | 0.00 | 90 | 1005.0 |
| 20260506021608 | 52 | 52 | 9.6 | 19.1 | 0.00 | 0.00 | 0.00 | 90 | 1006.0 |